Weather History for KATY - February, 2014

Change the Weather History Date:

Sunday, February 9, 2014

  Actual Average Record
Temperature  
Mean Temperature -7 °F 16 °F  
Max Temperature 1 °F 26 °F 49 °F (1987)
Min Temperature -15 °F 6 °F -36 °F (1899)
Degree Days  
Heating Degree Days 72 49  
Month to date heating degree days 590 453  
Since 1 July heating degree days 5932 5535  
Cooling Degree Days 0 0  
Month to date cooling degree days 0 0  
Year to date cooling degree days 0 0  
Moisture  
Dew Point -12 °F    
Average Humidity 80    
Maximum Humidity 90    
Minimum Humidity 69    
Precipitation  
Precipitation T in 0.01 in 0.50 in (1909)
Month to date precipitation 0.01 0.14  
Year to date precipitation 0.31 0.66  
Snow  
Snow T in - - ()
Month to date snowfall 0.2  
Since 1 July snowfall 16.3  
Snow Depth 10.00 in    
Sea Level Pressure  
Sea Level Pressure 30.41 in    
Wind  
Wind Speed 8 mph (NW)    
Max Wind Speed 18 mph    
Max Gust Speed 22 mph    
Visibility 8 miles    
Events Snow    
T = Trace of Precipitation, MM = Missing Value Source: NWS Daily Summary

Daily Weather History Graph

Daily Weather History Graph

Search for Another Location

Airport or City:

Trip Planner

Search our weather history database for the weather conditions in past years. The results will help you decide how hot, cold, wet, or windy it might be!

Date:

Astronomy

Feb. 09, 2014 Rise Set
Actual Time 7:37 AM CST 5:48 PM CST
Civil Twilight 7:07 AM CST 6:18 PM CST
Nautical Twilight 6:32 AM CST 6:53 PM CST
Astronomical Twilight 5:58 AM CST 7:27 PM CST
Moon 1:24 PM CST (2/9) 3:48 AM CST (2/9)
Length of Visible Light 11h 11m
Length of Day
10h 10m
Waxing Gibbous, 77% of the Moon is Illuminated
Feb 9
Waxing Gibbous
Feb 14
Full
Feb 22
Last Quarter
Mar 1
New
Mar 8
First Quarter

Hourly Weather History & Observations

Time (CST) Temp. Windchill Dew Point Humidity Pressure Visibility Wind Dir Wind Speed Gust Speed Precip Events Conditions
12:53 AM -8.0 °F -25.0 °F -11.9 °F 83% 30.36 in 10.0 mi NW 9.2 mph - N/A   Clear
1:53 AM -9.0 °F -25.2 °F -13.0 °F 83% 30.38 in 10.0 mi NW 8.1 mph - N/A   Clear
2:53 AM -13.0 °F -27.0 °F -16.1 °F 86% 30.38 in 10.0 mi NNW 5.8 mph - N/A   Clear
3:53 AM -13.0 °F -28.6 °F -17.0 °F 82% 30.37 in 10.0 mi North 6.9 mph - N/A   Clear
4:53 AM -11.0 °F - -16.1 °F 78% 30.38 in 10.0 mi Calm Calm - N/A   Clear
5:53 AM -11.9 °F -21.5 °F -17.0 °F 78% 30.39 in 10.0 mi NW 3.5 mph - N/A   Clear
6:53 AM -14.1 °F - -18.0 °F 82% 30.40 in 10.0 mi Calm Calm - N/A   Clear
7:53 AM -13.0 °F - -16.1 °F 86% 30.42 in 10.0 mi Calm Calm - N/A   Clear
8:50 AM -13.0 °F -22.7 °F -14.8 °F 92% 30.28 in 10.0 mi NNW 3.5 mph - N/A   Mostly Cloudy
8:53 AM -13.0 °F -22.7 °F -16.1 °F 86% 30.45 in 10.0 mi NNW 3.5 mph - N/A   Mostly Cloudy
9:30 AM -8.0 °F -22.5 °F -9.9 °F 91% 30.29 in 1.8 mi NW 6.9 mph - 0.00 in Snow Light Snow
9:42 AM -7.1 °F -21.4 °F -11.0 °F 83% 30.29 in 1.2 mi NW 6.9 mph - 0.00 in Snow Light Snow
9:50 AM -5.8 °F -19.9 °F -9.4 °F 84% 30.29 in 1.5 mi NW 6.9 mph - 0.00 in Snow Light Snow
9:53 AM -6.0 °F -21.5 °F -9.9 °F 83% 30.45 in 1.2 mi NW 8.1 mph - 0.00 in Snow Light Snow
10:06 AM -5.1 °F -17.6 °F -8.0 °F 87% 30.29 in 2.0 mi WNW 5.8 mph - 0.00 in Snow Light Snow
10:15 AM -4.0 °F -17.8 °F -8.0 °F 83% 30.29 in 4.0 mi NW 6.9 mph - 0.00 in   Overcast
10:53 AM -2.9 °F -20.8 °F -8.0 °F 79% 30.45 in 4.0 mi NW 11.5 mph - 0.00 in   Haze
11:16 AM -2.0 °F -19.6 °F -8.0 °F 76% 30.30 in 10.0 mi NW 11.5 mph - N/A   Scattered Clouds
11:53 AM -0.9 °F -18.3 °F -8.0 °F 72% 30.46 in 10.0 mi NW 11.5 mph - N/A   Clear
12:53 PM 1.0 °F -17.3 °F -8.0 °F 66% 30.45 in 10.0 mi NW 13.8 mph - N/A   Clear
1:53 PM 1.0 °F -18.0 °F -8.0 °F 66% 30.45 in 10.0 mi NW 15.0 mph - N/A   Clear
2:53 PM 1.0 °F -18.7 °F -7.1 °F 69% 30.45 in 10.0 mi NW 16.1 mph - N/A   Clear
3:53 PM 1.0 °F -18.0 °F -7.1 °F 69% 30.45 in 10.0 mi NW 15.0 mph - N/A   Clear
4:53 PM -0.0 °F -18.7 °F -8.0 °F 69% 30.46 in 10.0 mi NNW 13.8 mph - N/A   Clear
5:53 PM -2.0 °F -15.4 °F -9.0 °F 72% 30.48 in 10.0 mi NW 6.9 mph - N/A   Clear
6:53 PM -5.1 °F -19.1 °F -11.0 °F 76% 30.50 in 10.0 mi WNW 6.9 mph - N/A   Clear
7:53 PM -7.1 °F -22.8 °F -11.9 °F 79% 30.50 in 10.0 mi NW 8.1 mph - N/A   Clear
8:53 PM -7.1 °F -21.4 °F -13.0 °F 75% 30.51 in 10.0 mi WNW 6.9 mph - N/A   Clear
9:53 PM -13.0 °F -30.0 °F -18.0 °F 78% 30.53 in 10.0 mi West 8.1 mph - N/A   Clear
10:53 PM -8.0 °F -26.1 °F -13.0 °F 79% 30.53 in 10.0 mi WNW 10.4 mph - N/A   Clear
11:53 PM -9.0 °F -25.2 °F -14.1 °F 79% 30.53 in 10.0 mi WNW 8.1 mph - N/A   Clear